Volver al catálogo

DMSP 5D-2 F13 DEB

ActivoSSO
NORAD 40558·DEBRIS·🇺🇸 United States

Lanzado Mar 24, 1995 desde Vandenberg Space Force Base

Loading…

Próximos Pases (próximas 24 horas)

TLE

ActualizadoSource: Space-Track

Época: Sep 14, 2026, 11:09 UTC

1 40558U 95015DR  26257.46463820  .00002178  00000-0  93750-3 0  9992
2 40558  98.9679 253.7008 0042502 162.1951 198.0728 14.25207407589262

Sigue DMSP 5D-2 F13 DEB en tiempo real con AllMySat

Download on the App Store